Change the Weather History Date:

Sunday, February 10, 2013

  Actual Average Record
Temperature  
Mean Temperature 39 °F 41 °F  
Max Temperature 50 °F 57 °F 78 °F (1951)
Min Temperature 27 °F 26 °F 9 °F (1969)
Degree Days  
Heating Degree Days 26 24  
Month to date heating degree days 228 245  
Since 1 July heating degree days 2770 2814  
Cooling Degree Days 0 0  
Month to date cooling degree days 0 0  
Year to date cooling degree days 0 0  
Moisture  
Dew Point 12 °F    
Average Humidity 35    
Maximum Humidity 47    
Minimum Humidity 23    
Precipitation  
Precipitation 0.00 in 0.03 in 1.34 in (1962)
Month to date precipitation 0.00 0.28  
Year to date precipitation T 1.33  
Snow  
Snow 0.00 in 0.00 in 0.60 in (1978)
Month to date snowfall 0.0 0.1  
Since 1 July snowfall 2.8 5.9  
Snow Depth 0.00 in    
Sea Level Pressure  
Sea Level Pressure 29.99 in    
Wind  
Wind Speed 15 mph (NNW)    
Max Wind Speed 10 mph    
Max Gust Speed 14 mph    
Visibility 10 miles    
Events      
T = Trace of Precipitation, MM = Missing Value Source: NWS Daily Summary

Daily Weather History Graph

Daily Weather History Graph

Search for Another Location

Airport or City:

Trip Planner

Search our weather history database for the weather conditions in past years. The results will help you decide how hot, cold, wet, or windy it might be!

Date:

Astronomy

Feb. 10, 2013 Rise Set
Actual Time 6:47 AM PST 5:28 PM PST
Civil Twilight 6:20 AM PST 5:55 PM PST
Nautical Twilight 5:50 AM PST 6:25 PM PST
Astronomical Twilight 5:19 AM PST 6:56 PM PST
Moon 6:42 AM PST (2/10) 6:21 PM PST (2/10)
Length of Visible Light 11h 34m
Length of Day
10h 40m
New Moon, 0% of the Moon is Illuminated
Feb 10
New Moon
Feb 17
First Quarter
Feb 25
Full
Mar 4
Last Quarter
Mar 11
New

Hourly Weather History & Observations

Time (PST) Temp. Windchill Dew Point Humidity Pressure Visibility Wind Dir Wind Speed Gust Speed Precip Events Conditions
12:56 AM 32.0 °F 22.5 °F 10.9 °F 42% 29.99 in 10.0 mi NNW 12.7 mph - N/A   Clear
1:56 AM 33.1 °F 22.2 °F 10.9 °F 40% 29.98 in 10.0 mi NNW 17.3 mph 24.2 mph N/A   Clear
2:56 AM 30.0 °F 20.5 °F 10.0 °F 43% 29.99 in 10.0 mi NW 11.5 mph - N/A   Clear
3:56 AM 30.9 °F 20.2 °F 12.0 °F 46% 29.99 in 10.0 mi North 15.0 mph - N/A   Clear
4:56 AM 30.9 °F 19.8 °F 12.9 °F 47% 29.99 in 10.0 mi North 16.1 mph - N/A   Clear
5:56 AM 32.0 °F 22.5 °F 14.0 °F 48% 30.01 in 10.0 mi NNW 12.7 mph - N/A   Clear
6:56 AM 33.1 °F 22.2 °F 12.9 °F 43% 30.00 in 10.0 mi NNW 17.3 mph - N/A   Clear
7:56 AM 37.0 °F 28.5 °F 14.0 °F 39% 30.00 in 10.0 mi North 13.8 mph 23.0 mph N/A   Clear
8:56 AM 41.0 °F 33.9 °F 15.1 °F 35% 30.00 in 10.0 mi NNW 12.7 mph - N/A   Clear
9:56 AM 44.1 °F 35.9 °F 14.0 °F 30% 30.00 in 10.0 mi NNE 19.6 mph 28.8 mph N/A   Clear
10:56 AM 46.9 °F - 10.9 °F 23% 29.99 in 10.0 mi North 23.0 mph 39.1 mph N/A   Partly Cloudy
11:56 AM 48.0 °F - 12.9 °F 24% 29.95 in 10.0 mi North 18.4 mph 31.1 mph N/A   Mostly Cloudy
12:56 PM 48.0 °F - 12.0 °F 24% 29.92 in 10.0 mi North 20.7 mph 28.8 mph N/A   Partly Cloudy
1:56 PM 48.9 °F - 12.9 °F 24% 29.91 in 10.0 mi North 24.2 mph 33.4 mph N/A   Mostly Cloudy
2:56 PM 46.9 °F - 12.9 °F 25% 29.93 in 10.0 mi North 24.2 mph 34.5 mph N/A   Clear
3:56 PM 46.0 °F 38.3 °F 10.9 °F 24% 29.94 in 10.0 mi North 20.7 mph 31.1 mph N/A   Clear
4:56 PM 41.0 °F 33.1 °F 12.9 °F 32% 29.97 in 10.0 mi NNW 15.0 mph 26.5 mph N/A   Clear
5:56 PM 37.9 °F 30.9 °F 12.9 °F 36% 30.00 in 10.0 mi NNW 10.4 mph - N/A   Clear
6:56 PM 37.0 °F 28.5 °F 12.9 °F 37% 30.02 in 10.0 mi NNW 13.8 mph - N/A   Clear
7:56 PM 36.0 °F 28.5 °F 14.0 °F 41% 30.03 in 10.0 mi NNW 10.4 mph - N/A   Clear
8:56 PM 32.0 °F 25.6 °F 12.9 °F 45% 30.05 in 10.0 mi NW 6.9 mph - N/A   Clear
9:56 PM 33.1 °F 28.7 °F 10.9 °F 40% 30.05 in 10.0 mi North 4.6 mph - N/A   Mostly Cloudy
10:56 PM 28.0 °F 20.8 °F 10.0 °F 47% 30.06 in 10.0 mi North 6.9 mph - N/A   Partly Cloudy
11:56 PM 28.0 °F 19.3 °F 10.0 °F 47% 30.08 in 10.0 mi NNW 9.2 mph - N/A   Clear